McAlester, OK

4:19 PM CST on November 11, 2019 (GMT -0600)
McAlester Regional

Weather History for KMLC - August, 2019

Change the Weather History Date:

Tuesday, August 13, 2019

  Actual Average Record
Temperature  
Mean Temperature 83 °F -  
Max Temperature 93 °F 93 °F 107 °F (1956)
Min Temperature 73 °F 70 °F 52 °F (1967)
Cooling Degree Days 18    
Growing Degree Days 33 (Base 50)    
Moisture  
Dew Point 72 °F    
Average Humidity 67    
Maximum Humidity 91    
Minimum Humidity 49    
Precipitation  
Precipitation 0.00 in - - ()
Sea Level Pressure  
Sea Level Pressure 29.92 in    
Wind  
Wind Speed 4 mph (NNE)    
Max Wind Speed 13 mph    
Max Gust Speed -    
Visibility 10 miles    
Events      
Averages and records for this station are not official NWS values.
T = Trace of Precipitation, MM = Missing Value Source: NWS Daily Summary

Daily Weather History Graph

Daily Weather History Graph

Search for Another Location

Airport or City:

Astronomy

Aug. 13, 2019 Rise Set
Actual Time 6:41 AM CDT 8:13 PM CDT
Civil Twilight 6:14 AM CDT 8:40 PM CDT
Nautical Twilight 5:42 AM CDT 9:12 PM CDT
Astronomical Twilight 5:08 AM CDT 9:46 PM CDT
Moon 7:24 PM CDT (8/13) 4:49 AM CDT (8/13)
Length of Visible Light 14h 25m
Length of Day
13h 32m
Waxing Gibbous, 97% of the Moon is Illuminated
Aug 13
Waxing Gibbous
Aug 15
Full
Aug 23
Last Quarter
Aug 30
New
Sep 5
First Quarter

Hourly Weather History & Observations

Time (CDT) Temp. Heat Index Dew Point Humidity Pressure Visibility Wind Dir Wind Speed Gust Speed Precip Events Conditions
12:53 AM 81.0 °F 84.4 °F 70.0 °F 69% 29.85 in 10.0 mi Calm Calm - N/A   Clear
1:53 AM 81.0 °F 84.4 °F 70.0 °F 69% 29.86 in 10.0 mi South 3.5 mph - N/A   Clear
2:53 AM 80.1 °F 83.2 °F 70.0 °F 71% 29.85 in 10.0 mi South 4.6 mph - N/A   Clear
4:53 AM 75.9 °F - 70.0 °F 82% 29.88 in 10.0 mi Calm Calm - N/A   Clear
5:53 AM 73.9 °F - 71.1 °F 91% 29.89 in 10.0 mi Calm Calm - N/A   Scattered Clouds
6:53 AM 77.0 °F - 70.0 °F 79% 29.91 in 10.0 mi Calm Calm - N/A   Clear
7:53 AM 79.0 °F - 71.1 °F 77% 29.91 in 10.0 mi ESE 4.6 mph - N/A   Clear
8:53 AM 82.9 °F 88.8 °F 73.0 °F 72% 29.91 in 10.0 mi Calm Calm - N/A   Clear
9:53 AM 86.0 °F 91.5 °F 71.1 °F 61% 29.94 in 10.0 mi North 12.7 mph - N/A   Partly Cloudy
10:53 AM 87.1 °F 91.3 °F 69.1 °F 55% 29.96 in 10.0 mi North 10.4 mph - N/A   Clear
11:53 AM 86.0 °F 90.7 °F 70.0 °F 59% 29.96 in 10.0 mi North 8.1 mph - N/A   Clear
12:53 PM 89.1 °F 93.7 °F 69.1 °F 52% 29.96 in 10.0 mi North 8.1 mph - N/A   Clear
1:53 PM 88.0 °F 92.1 °F 69.1 °F 53% 29.94 in 10.0 mi ENE 4.6 mph - N/A   Clear
2:53 PM 89.1 °F 94.1 °F 70.0 °F 53% 29.94 in 10.0 mi NE 5.8 mph - N/A   Clear
3:53 PM 90.0 °F 95.4 °F 70.0 °F 52% 29.93 in 10.0 mi NNE 10.4 mph - N/A   Clear
4:53 PM 93.0 °F 100.1 °F 71.1 °F 49% 29.91 in 10.0 mi North 8.1 mph - N/A   Partly Cloudy
5:53 PM 91.0 °F 98.2 °F 72.0 °F 53% 29.91 in 10.0 mi North 6.9 mph - N/A   Scattered Clouds
6:53 PM 88.0 °F 96.5 °F 73.9 °F 63% 29.91 in 10.0 mi North 10.4 mph - N/A   Scattered Clouds
7:53 PM 84.9 °F 93.3 °F 75.0 °F 72% 29.91 in 10.0 mi North 8.1 mph - N/A   Mostly Cloudy
8:53 PM 82.9 °F 90.2 °F 75.0 °F 77% 29.93 in 10.0 mi North 8.1 mph - N/A   Mostly Cloudy
9:53 PM 82.9 °F 90.8 °F 75.9 °F 79% 29.96 in 10.0 mi North 5.8 mph - N/A   Mostly Cloudy
10:53 PM 82.0 °F 89.4 °F 75.9 °F 82% 29.97 in 10.0 mi North 5.8 mph - N/A   Mostly Cloudy
11:53 PM 82.0 °F 89.4 °F 75.9 °F 82% 29.98 in 10.0 mi Variable 4.6 mph - N/A   Scattered Clouds